Theta_e
318 318 320 319 316 321 330 337 340 333 334 334 334 334 334 331 333 330 327 326 325 324 324 324 325 325 323 322 321 319 317 315 312 311 312 312 311 311 312 312 312 313 313 313
318 319 320 322 326 332 334 338 338 334 330 332 332 337 335 335 334 331 330 328 326 325 325 326 323 323 322 321 320 316 313 312 312 312 312 310 310 310 310 311 311 311 312 312
319 320 325 329 327 329 328 330 336 338 336 333 337 339 338 336 335 333 330 328 326 327 326 322 320 319 319 319 317 313 313 311 312 311 310 309 309 309 309 309 309 309 310 311
326 325 326 324 325 323 325 330 335 336 336 341 333 343 336 333 335 335 333 329 325 324 323 319 318 320 316 314 313 311 311 311 310 310 309 308 308 308 307 306 306 306 307 309
330 329 329 328 328 325 327 332 334 333 336 335 336 341 339 333 337 336 332 327 324 323 319 318 314 312 315 312 312 311 311 309 309 309 308 307 306 306 307 305 305 306 306 307
330 329 330 329 324 325 323 322 319 320 328 335 334 333 333 336 334 335 329 326 323 322 319 318 311 311 311 310 308 309 309 309 308 308 307 306 306 306 306 305 305 304 305 307
328 331 330 329 329 324 321 319 322 324 335 339 333 333 330 331 333 331 327 324 323 319 311 310 310 309 309 308 307 308 308 308 307 307 307 306 306 306 306 305 305 305 306 308
331 333 331 328 327 326 323 321 323 329 333 338 331 338 332 332 329 325 322 321 315 310 308 308 309 309 308 308 308 307 308 308 308 307 307 307 306 306 305 305 306 306 308 308
330 332 327 324 323 323 324 324 321 326 330 334 335 336 335 331 328 324 321 320 311 309 307 307 308 308 307 308 307 308 308 308 308 307 307 306 306 306 306 306 306 306 307 308
331 330 328 328 324 322 324 323 324 324 332 337 334 332 335 333 330 323 321 314 309 308 306 306 306 306 307 307 308 308 308 308 308 308 308 307 307 307 306 306 307 307 307 308
325 324 328 327 327 323 323 323 323 323 326 332 333 331 324 329 327 324 319 314 309 306 305 305 306 307 307 307 308 308 308 309 308 308 308 308 308 307 307 307 306 306 307 307
325 325 330 330 326 322 321 324 320 324 330 326 326 327 321 324 324 320 315 310 307 305 305 306 305 307 307 308 308 309 309 309 309 309 308 309 308 308 306 306 307 307 307 308
327 322 325 326 323 321 322 321 319 320 322 328 328 326 321 319 317 314 309 307 307 305 305 305 305 306 307 307 308 308 308 308 309 309 310 309 308 309 309 309 306 307 308 307
327 326 325 326 325 322 324 324 323 322 325 328 327 326 322 319 317 311 309 307 307 306 307 305 304 306 307 307 308 308 308 308 309 310 310 309 309 309 309 309 308 306 307 307
326 329 323 323 324 322 323 324 324 327 326 326 328 326 322 318 313 310 308 309 308 308 307 305 305 306 307 308 309 310 309 309 310 310 310 310 310 310 310 309 308 308 308 308
322 328 326 326 324 325 327 324 323 322 320 321 321 322 316 311 310 310 310 310 309 308 308 306 307 308 307 308 309 309 310 309 310 310 310 310 309 310 310 310 310 310 310 309
326 327 329 329 329 327 329 328 323 322 320 319 320 319 315 314 312 310 310 309 310 309 307 307 308 307 308 309 309 310 310 309 310 311 311 310 310 311 311 311 311 311 310 308
329 329 327 332 330 331 329 323 322 323 322 320 320 317 314 312 310 309 307 310 309 308 308 308 308 308 309 309 309 310 310 310 310 311 312 311 311 312 312 312 311 311 310 308
328 327 330 333 333 329 328 329 328 324 323 319 317 314 313 311 310 310 308 308 307 308 308 308 308 309 309 309 310 310 309 310 311 312 312 312 312 311 311 312 310 310 309 309
327 329 331 332 331 330 328 325 322 320 323 318 316 313 313 311 313 309 309 309 309 309 309 309 308 308 309 310 310 310 310 311 311 312 312 312 312 310 307 308 311 311 311 310
329 331 333 332 332 330 325 323 320 323 319 316 315 313 311 311 310 308 309 310 310 309 309 309 308 309 310 310 310 310 311 311 312 313 312 312 311 311 307 305 308 311 312 312
332 332 330 328 328 330 321 320 319 318 316 314 314 313 312 310 309 308 308 309 310 310 309 309 309 310 310 311 310 311 311 311 313 312 312 312 312 310 307 301 306 308 310 311
328 325 327 324 325 321 318 319 318 312 313 312 312 311 310 310 309 308 307 309 310 310 310 310 310 310 310 312 311 311 312 313 313 312 312 312 312 312 312 308 301 303 305 307
326 321 323 323 324 320 318 316 314 311 312 312 311 310 310 310 308 308 308 309 310 310 310 310 310 311 311 312 312 312 312 313 312 312 312 311 312 312 313 312 306 300 299 297
324 322 321 321 321 320 319 317 315 312 311 312 312 311 310 309 308 309 309 310 310 310 310 311 311 311 311 312 312 312 312 313 313 313 312 312 313 312 311 311 310 304 301 300
320 324 323 321 318 316 317 316 314 312 311 312 311 312 311 311 309 311 311 312 311 310 311 311 311 311 311 312 312 312 313 313 312 312 312 313 313 311 312 312 311 309 305 301
Wind_Speed
4 6 5 7 7 4 8 16 14 7 10 13 14 7 3 0 7 5 5 3 3 2 3 5 7 6 7 5 3 5 6 10 13 14 14 15 17 16 11 14 13 12 12 11
6 5 1 2 6 7 13 14 11 11 8 13 7 8 6 5 4 4 3 4 4 2 3 6 4 3 6 3 4 5 7 9 11 12 13 15 17 14 11 13 12 12 10 8
6 4 4 9 3 8 2 7 8 11 9 11 13 5 3 2 1 4 4 4 4 4 3 1 5 6 5 4 4 4 8 12 12 14 15 16 17 17 15 16 15 14 11 10
5 6 9 9 5 5 4 10 21 26 11 6 2 3 3 2 2 6 5 3 5 2 1 2 6 6 5 7 8 10 14 14 14 14 14 15 14 14 16 18 17 16 13 12
1 1 6 9 3 2 2 23 23 14 12 7 1 3 3 2 1 5 4 5 6 6 5 3 13 15 14 9 11 11 12 12 12 12 13 16 14 16 17 18 18 17 15 13
1 0 3 4 4 4 4 8 6 5 4 4 3 4 4 5 7 7 3 4 5 4 4 8 12 13 13 10 11 11 11 13 14 14 16 16 16 15 15 18 19 19 18 18
6 4 3 3 4 5 6 6 3 4 5 2 1 3 5 3 7 6 8 7 6 2 7 9 10 10 10 10 12 11 12 12 15 16 15 15 16 15 15 17 17 17 17 16
3 7 6 6 2 4 4 5 5 3 4 3 4 3 3 1 6 7 6 6 7 6 6 8 8 6 7 8 10 11 10 10 15 16 15 13 15 15 15 17 15 14 11 13
3 4 5 9 4 2 1 4 2 6 3 4 1 2 2 5 5 5 5 5 7 6 6 7 5 4 6 7 9 9 9 9 13 15 16 15 16 14 15 15 14 13 15 16
2 2 3 4 7 9 6 3 3 3 4 3 2 3 3 6 7 7 6 6 5 5 6 5 5 5 5 6 8 8 10 10 11 13 15 16 16 15 12 12 13 14 15 15
2 3 6 4 5 1 5 4 5 5 3 4 3 4 5 8 9 10 8 8 7 6 5 4 3 3 5 5 8 10 11 11 13 13 14 16 16 16 14 13 12 12 13 11
4 4 2 3 7 4 4 2 3 4 0 2 3 4 4 9 10 8 6 7 6 6 5 2 0 2 5 6 7 8 11 11 11 14 14 13 16 17 15 13 12 11 12 11
1 3 3 6 5 7 6 4 5 6 3 1 3 4 5 5 7 4 8 7 6 6 4 2 1 2 4 6 8 8 11 13 11 14 15 15 12 15 14 14 14 9 10 10
7 3 4 4 2 2 6 7 5 5 4 2 3 2 1 4 5 6 7 7 6 5 4 2 1 2 4 5 8 9 10 14 13 14 15 14 14 13 13 13 12 10 8 9
4 6 6 6 13 15 12 10 9 7 4 3 3 4 3 3 5 5 6 5 5 4 2 3 2 3 4 5 7 10 11 12 14 15 15 13 12 12 11 12 11 12 11 11
4 2 5 8 14 14 13 8 9 8 6 5 5 3 3 5 8 6 6 5 4 5 4 5 4 2 3 5 8 10 10 11 12 14 15 13 13 13 13 12 11 10 12 11
3 6 3 5 2 2 7 7 6 4 5 1 1 2 3 4 6 6 6 5 6 4 5 4 4 2 3 5 8 9 8 7 10 12 13 14 14 15 14 12 12 13 12 12
3 3 2 2 3 4 2 5 7 8 5 4 5 4 2 4 3 4 4 5 5 4 4 5 5 3 4 5 7 8 5 6 8 11 11 12 14 18 18 15 12 11 11 11
4 2 4 4 3 2 2 0 3 1 2 5 4 4 4 4 3 3 4 3 4 6 6 5 4 3 4 6 6 5 4 5 7 11 11 12 15 15 15 14 12 11 10 9
5 5 4 3 4 2 3 6 7 5 2 3 3 5 6 4 0 4 5 7 7 7 5 6 5 4 5 5 5 3 5 5 9 11 11 12 14 15 15 12 8 5 6 7
5 4 4 3 4 2 5 7 3 3 4 2 3 6 7 5 5 3 8 7 9 7 8 6 6 5 5 3 4 3 4 6 8 9 9 10 13 10 12 9 8 5 1 1
3 3 2 3 4 3 8 6 6 4 1 1 1 1 5 5 3 3 6 9 9 8 7 7 6 7 4 3 2 2 3 6 7 7 7 9 11 10 10 10 4 5 2 2
3 2 2 2 4 3 3 3 2 5 4 4 3 4 5 5 5 5 5 10 9 7 7 6 5 6 6 4 4 4 3 5 6 6 7 10 12 11 11 9 7 4 4 4
6 4 3 3 1 3 3 1 2 5 3 3 4 6 6 6 5 6 7 9 9 8 8 7 6 5 5 5 5 5 3 4 4 6 7 11 15 15 13 10 7 5 6 6
3 4 3 2 3 2 4 4 3 3 3 3 6 8 10 7 5 8 9 11 11 9 7 7 6 6 6 6 6 6 4 3 6 6 9 14 18 16 15 14 8 7 5 6
4 3 2 3 3 1 6 5 4 2 5 9 8 5 10 13 10 12 13 13 12 11 9 8 8 8 8 8 8 7 5 5 5 7 11 15 17 16 17 16 9 8 8 6
Wind_Direction
12 46 258 284 193 193 97 85 92 114 123 84 117 117 116 278 120 151 197 201 168 172 243 279 301 314 275 274 325 342 345 5 359 355 348 340 339 343 337 323 325 314 313 309
8 260 236 252 78 111 98 104 94 74 99 108 142 110 131 194 169 165 180 214 173 209 294 293 352 323 355 1 13 27 26 3 351 356 354 345 340 340 348 350 350 351 341 351
181 244 33 108 69 104 72 134 172 134 102 110 130 77 97 40 135 143 207 221 192 199 200 289 14 1 45 74 98 36 18 7 359 351 347 354 350 346 342 351 346 344 339 331
102 337 94 117 146 143 71 116 134 138 129 153 235 115 265 211 248 166 183 186 186 157 230 332 10 45 121 66 52 28 11 1 359 350 348 8 355 345 343 339 339 339 330 326
219 100 81 66 346 87 105 137 148 150 119 114 91 114 193 120 261 177 190 202 205 219 211 20 66 65 104 58 35 11 6 5 358 352 356 360 351 342 337 342 343 344 346 341
86 92 61 117 33 53 96 132 101 116 117 70 279 139 201 184 201 173 198 218 225 234 235 85 89 79 69 49 25 15 12 6 5 360 359 354 348 346 345 346 343 343 345 349
347 343 295 118 125 21 73 59 359 8 29 181 253 73 229 201 171 183 181 201 224 105 103 94 86 71 51 32 20 15 359 8 7 1 1 1 356 354 349 347 346 349 354 6
83 360 1 312 94 146 77 129 146 252 178 201 7 134 235 149 141 148 153 189 107 97 88 97 97 72 38 16 8 359 4 10 7 358 0 357 354 4 5 360 2 359 2 20
57 359 3 50 42 70 44 52 171 107 68 97 218 125 120 111 94 93 161 148 128 124 112 117 104 52 13 7 1 1 2 360 4 9 7 7 8 6 9 13 17 10 20 32
14 1 10 333 35 18 95 153 23 16 135 111 179 246 236 182 174 172 177 165 151 132 112 105 62 24 15 2 5 20 9 358 350 3 11 16 12 17 15 18 21 10 20 34
29 77 304 39 25 222 11 11 51 109 78 142 166 256 210 187 187 185 193 172 160 138 136 111 43 23 11 21 27 21 18 8 10 11 14 15 17 22 21 19 19 18 19 27
354 123 55 24 313 3 81 75 99 108 159 62 126 269 314 181 173 172 161 142 140 142 137 137 340 22 23 17 17 9 9 7 5 8 11 16 26 26 25 20 22 23 27 33
19 21 20 352 347 2 47 359 86 93 86 41 126 266 37 96 122 111 128 127 125 133 160 210 24 350 356 4 9 7 2 359 1 9 12 18 15 14 11 20 20 27 31 34
87 79 155 190 247 126 53 29 20 91 83 160 216 201 251 183 136 111 110 122 141 170 188 157 265 343 345 353 356 355 356 360 6 12 21 27 29 21 14 19 26 35 34 37
82 52 50 64 89 78 75 63 43 54 119 106 209 188 255 210 152 136 130 139 153 172 205 226 257 338 326 353 360 356 351 359 14 30 28 22 17 19 27 36 51 44 45 40
22 96 64 51 84 81 71 37 52 34 25 36 54 18 21 81 105 121 144 145 177 214 212 234 238 293 315 348 348 355 357 7 25 35 32 28 28 32 27 25 32 32 33 33
64 134 129 169 27 65 42 10 46 57 30 112 312 310 141 92 109 150 171 183 203 202 210 216 237 242 302 342 346 352 353 8 30 25 19 14 9 11 11 10 31 44 47 60
58 68 63 91 7 53 97 9 104 85 23 70 90 93 91 138 127 160 198 189 196 198 208 234 239 247 298 328 344 347 359 17 24 20 18 19 17 15 26 41 52 48 54 64
67 88 69 108 54 299 280 278 318 346 17 341 131 125 104 104 57 313 232 201 202 212 221 226 214 246 291 328 339 345 3 13 26 20 15 13 12 15 17 34 47 59 59 62
9 68 116 87 99 108 291 320 306 138 340 9 147 173 162 151 132 261 205 201 210 219 222 206 204 249 292 330 346 322 341 8 27 20 18 16 12 13 19 25 33 45 59 59
341 358 47 96 92 20 304 325 349 67 250 326 147 192 175 202 210 247 165 208 218 224 215 213 232 257 285 313 328 304 335 1 18 16 12 18 8 356 2 355 14 18 33 59
354 8 23 69 71 10 345 359 77 213 268 239 255 221 189 203 164 162 191 213 222 237 226 228 243 252 253 288 243 327 0 356 9 3 9 3 3 15 6 10 346 357 9 258
33 115 113 94 184 240 314 135 170 159 175 210 181 197 189 175 210 203 214 214 222 230 237 238 251 270 267 238 234 267 307 344 353 1 352 344 350 352 342 342 5 329 302 303
344 40 74 69 328 153 190 240 203 205 190 172 186 177 181 201 202 213 207 220 232 231 245 246 251 253 250 231 227 233 263 335 349 352 345 349 348 349 349 318 304 340 359 349
273 359 19 13 351 348 274 249 208 190 137 153 178 193 197 187 213 201 213 226 232 234 244 229 251 242 248 245 233 232 248 309 336 347 344 345 343 347 351 349 281 278 320 352
354 321 66 240 291 278 320 326 44 262 206 199 186 195 220 205 207 212 223 227 225 229 232 231 242 248 253 236 255 251 268 295 320 333 340 343 345 347 346 340 333 253 256 283